Le nostre stazioni meteo in Italia

Pubblicità
Il mio iltempo24.it
Kleine Brogel, Belgio (6479): Temperatura & dewpoint: 10.02.2019 07:00:00 - 16.02.2019 07:00:00 (CET)Kleine Brogel, Belgio (6479): velocità del vento & gusts: 10.02.2019 07:00:00 - 16.02.2019 07:00:00 (CET)Kleine Brogel, Belgio (6479): direzione del vento: 10.02.2019 07:00:00 - 16.02.2019 07:00:00 (CET)Kleine Brogel, Belgio (6479): reduced air pressure: 10.02.2019 07:00:00 - 16.02.2019 07:00:00 (CET)Kleine Brogel, Belgio (6479): visibility: 10.02.2019 07:00:00 - 16.02.2019 07:00:00 (CET)
Data & Tempo tt [°C] td [°C] ff [km/h] ff [kn] fx [km/h] fx [kn] dd ppp [hPa] vv [km]
16.02.2019 07:00:00 - - - - - - - - -
16.02.2019 06:00:00 - - - - - - - - -
16.02.2019 05:00:00 - - - - - - - - -
16.02.2019 04:00:00 - - - - - - - - -
16.02.2019 03:00:00 - - - - - - - - -
16.02.2019 02:00:00 - - - - - - - - -
16.02.2019 01:00:00 - - - - - - - - -
16.02.2019 00:00:00 - - - - - - - - -
15.02.2019 23:00:00 - - - - - - - - -
15.02.2019 22:00:00 - - - - - - - - -
15.02.2019 21:00:00 - - - - - - - - -
15.02.2019 20:00:00 - - - - - - - - -
15.02.2019 19:00:00 7,0 2,2 4 2 - - N 1028,5 16
15.02.2019 18:00:00 11,8 3,3 4 2 7 4 N 1028,4 20
15.02.2019 17:00:00 14,5 2,6 4 2 11 6 - 1028,4 10
15.02.2019 16:00:00 15,6 1,9 4 2 - - N 1029,0 15
15.02.2019 15:00:00 16,1 1,6 7 4 11 6 E 1029,7 15
15.02.2019 14:00:00 15,8 0,6 4 2 7 4 N 1030,7 15
15.02.2019 13:00:00 14,4 1,0 4 2 - - N 1031,2 15
15.02.2019 12:00:00 13,0 -0,2 4 2 7 4 N 1032,0 15
15.02.2019 11:00:00 9,4 -0,2 4 2 4 2 N 1032,2 15
15.02.2019 10:00:00 4,7 0,4 4 2 - - N 1032,5 15
15.02.2019 09:00:00 5,3 2,5 14 8 25 14 SSO 1014,2 20
15.02.2019 08:00:00 -2,2 -3,0 4 2 4 2 N 1033,0 15
15.02.2019 07:00:00 -1,8 -2,6 4 2 - - N 1032,7 18
15.02.2019 06:00:00 -1,6 -2,6 0 0 4 2 N 1033,0 20
15.02.2019 05:00:00 -1,3 -2,3 4 2 4 2 N 1032,9 20
15.02.2019 04:00:00 -0,6 -1,5 4 2 - - N 1033,2 20
15.02.2019 03:00:00 0,5 -1,0 4 2 4 2 N 1033,5 19
15.02.2019 02:00:00 0,6 -0,6 4 2 4 2 N 1033,9 19
15.02.2019 01:00:00 0,3 -1,1 4 2 - - - 1034,0 19
15.02.2019 00:00:00 1,6 -0,2 4 2 0 0 - 1033,9 16
14.02.2019 23:00:00 2,4 -0,6 4 2 4 2 N 1034,0 20
14.02.2019 22:00:00 3,5 -0,1 4 2 - - N 1033,9 20
14.02.2019 21:00:00 4,3 -0,6 4 2 7 4 N 1034,0 20
14.02.2019 20:00:00 6,5 -0,8 4 2 4 2 N 1034,2 20
14.02.2019 19:00:00 7,3 -1,9 4 2 - - N 1034,2 20
14.02.2019 18:00:00 10,3 -2,9 4 2 11 6 N 1034,0 20
14.02.2019 17:00:00 12,7 -0,4 4 2 7 4 N 1034,0 20
14.02.2019 16:00:00 13,8 0,4 4 2 - - N 1034,4 20
14.02.2019 15:00:00 14,8 -4,6 7 4 11 6 NE 1035,0 20
14.02.2019 14:00:00 13,8 -2,7 4 2 7 4 N 1035,4 20
14.02.2019 13:00:00 12,4 -1,2 4 2 - - N 1036,2 10
14.02.2019 12:00:00 10,1 -1,0 4 2 11 6 N 1036,7 10
14.02.2019 11:00:00 8,3 -0,6 4 2 7 4 N 1036,7 10
14.02.2019 10:00:00 3,5 -0,4 4 2 - - N 1037,0 10
14.02.2019 09:00:00 -0,5 -1,5 0 0 0 0 N 1037,2 10
14.02.2019 08:00:00 -2,6 -3,4 4 2 4 2 N 1037,0 10
14.02.2019 07:00:00 -2,6 -3,6 0 0 - - N 1036,2 10
14.02.2019 06:00:00 -1,7 -2,4 4 2 4 2 N 1036,0 12
14.02.2019 05:00:00 -1,3 -2,6 4 2 7 4 N 1035,9 18
14.02.2019 04:00:00 -0,5 -1,4 7 4 - - N 1035,7 8
14.02.2019 03:00:00 -0,1 -0,9 0 0 7 4 N 1036,0 4,7
14.02.2019 02:00:00 -0,8 -1,6 4 2 7 4 N 1036,0 3,7
14.02.2019 01:00:00 -0,1 -1,1 4 2 - - N 1036,2 5
14.02.2019 00:00:00 0,2 -0,5 4 2 7 4 N 1036,2 10
13.02.2019 23:00:00 0,0 -0,8 4 2 7 4 N 1036,4 14
13.02.2019 22:00:00 1,3 0,0 4 2 - - - 1036,5 10
13.02.2019 21:00:00 1,8 0,4 4 2 7 4 N 1036,4 12
13.02.2019 20:00:00 2,5 0,7 2 1 4 2 - 1036,7 7
13.02.2019 19:00:00 3,0 1,0 4 2 - - N 1036,5 16
13.02.2019 18:00:00 5,4 0,7 4 2 11 6 N 1036,4 20
13.02.2019 17:00:00 6,8 0,9 7 4 14 8 N 1036,2 20
13.02.2019 16:00:00 7,3 1,5 11 6 - - SSO 1036,2 20
13.02.2019 15:00:00 7,1 1,4 7 4 18 10 S 1036,2 20
13.02.2019 14:00:00 7,1 1,9 7 4 18 10 SSO 1036,9 20
13.02.2019 13:00:00 6,6 1,3 11 6 - - SO 1037,2 20
13.02.2019 12:00:00 5,9 0,8 14 8 22 12 SO 1037,5 20
13.02.2019 11:00:00 4,9 0,3 7 4 18 10 SSO 1037,2 20
13.02.2019 10:00:00 2,7 -0,2 11 6 - - SSO 1037,5 20
13.02.2019 09:00:00 1,2 -0,6 7 4 18 10 SSO 1037,4 15
13.02.2019 08:00:00 0,3 -1,0 11 6 18 10 SSO 1037,0 10
13.02.2019 07:00:00 0,4 -1,0 11 6 - - SSO 1036,5 10
13.02.2019 06:00:00 0,8 -0,8 11 6 18 10 SO 1036,5 11
13.02.2019 05:00:00 1,1 -0,5 11 6 22 12 SSO 1036,5 13
13.02.2019 04:00:00 1,3 -0,1 15 8 - - SSO 1036,5 7
13.02.2019 03:00:00 1,4 0,2 11 6 18 10 SSO 1036,9 8
13.02.2019 02:00:00 1,8 0,5 11 6 18 10 SSO 1037,0 7
13.02.2019 01:00:00 2,2 0,7 11 6 - - SO 1037,0 9
13.02.2019 00:00:00 2,6 0,9 11 6 22 12 SSO 1036,5 10
12.02.2019 23:00:00 3,5 1,3 14 8 22 12 SO 1036,2 12
12.02.2019 22:00:00 4,0 1,4 14 8 - - SO 1036,2 16
12.02.2019 21:00:00 4,3 1,4 11 6 22 12 SSO 1036,2 18
12.02.2019 20:00:00 4,5 1,5 7 4 14 8 SSO 1035,7 20
12.02.2019 19:00:00 4,8 1,2 7 4 - - SSO 1035,7 18
12.02.2019 18:00:00 6,0 1,1 7 4 14 8 SO 1035,4 20
12.02.2019 17:00:00 7,4 1,8 11 6 22 12 OSO 1035,2 20
12.02.2019 16:00:00 7,9 1,6 14 8 - - OSO 1035,0 20
12.02.2019 15:00:00 7,9 3,0 14 8 22 12 OSO 1034,9 20
12.02.2019 14:00:00 6,9 3,5 14 8 22 12 SO 1035,2 15
12.02.2019 13:00:00 4,5 2,8 15 8 - - SO 1035,7 8
12.02.2019 12:00:00 3,0 2,3 7 4 14 8 SO 1036,0 3,0
12.02.2019 11:00:00 1,3 1,2 11 6 14 8 SSO 1035,7 2,0
12.02.2019 10:00:00 0,6 0,4 11 6 - - SO 1035,5 0,9
12.02.2019 09:00:00 0,4 0,2 11 6 14 8 SO 1035,2 0,5
12.02.2019 08:00:00 0,3 0,2 7 4 14 8 SSO 1034,2 0,2
12.02.2019 07:00:00 0,2 -0,1 11 6 - - SO 1033,9 0,8
12.02.2019 06:00:00 0,0 -0,3 7 4 11 6 SO 1034,0 2,5
12.02.2019 05:00:00 0,1 -0,4 11 6 14 8 OSO 1033,7 3,9
12.02.2019 04:00:00 0,5 0,0 11 6 - - OSO 1033,7 6
12.02.2019 03:00:00 0,6 -0,1 11 6 11 6 OSO 1033,7 9
12.02.2019 02:00:00 0,5 -0,2 7 4 11 6 OSO 1033,5 10
12.02.2019 01:00:00 0,1 -0,5 7 4 - - O 1033,0 10
12.02.2019 00:00:00 -0,1 -0,9 4 2 7 4 N 1032,4 10
11.02.2019 23:00:00 0,6 -0,5 4 2 7 4 N 1031,7 12
11.02.2019 22:00:00 1,2 -0,4 4 2 - - N 1031,2 16
11.02.2019 21:00:00 2,0 0,2 4 2 11 6 N 1030,4 20
11.02.2019 20:00:00 1,8 0,2 4 2 7 4 N 1029,2 10
11.02.2019 19:00:00 3,5 0,2 4 2 - - N 1028,5 10
11.02.2019 18:00:00 5,3 1,2 7 4 22 12 NO 1027,5 10
11.02.2019 17:00:00 6,1 4,2 11 6 18 10 O 1026,0 10
11.02.2019 16:00:00 6,4 4,2 11 6 - - O 1024,5 10
11.02.2019 15:00:00 6,0 3,7 14 8 32 18 O 1023,8 15
11.02.2019 14:00:00 7,5 2,7 14 8 25 14 ONO 1022,3 20
11.02.2019 13:00:00 6,8 2,6 18 10 - - O 1021,3 20
11.02.2019 12:00:00 6,5 2,6 14 8 29 16 ONO 1020,6 20
11.02.2019 11:00:00 5,8 2,9 14 8 22 12 O 1019,5 15
11.02.2019 10:00:00 4,4 2,4 14 8 - - OSO 1018,2 20
11.02.2019 09:00:00 3,0 1,7 14 8 18 10 OSO 1017,2 20
11.02.2019 08:00:00 2,5 1,3 13 7 22 12 OSO 1015,7 10
11.02.2019 07:00:00 2,5 1,2 16 9 - - OSO 1014,3 10
11.02.2019 06:00:00 3,4 1,8 14 8 25 14 OSO 1013,6 20
11.02.2019 05:00:00 2,7 1,4 11 6 22 12 OSO 1012,5 20
11.02.2019 04:00:00 3,5 1,7 14 8 - - O 1011,2 20
11.02.2019 03:00:00 3,8 2,2 11 6 22 12 O 1010,5 20
11.02.2019 02:00:00 3,9 2,8 11 6 32 18 NO 1009,3 20
11.02.2019 01:00:00 4,7 3,1 18 10 - - O 1007,5 20
11.02.2019 00:00:00 3,5 2,5 14 8 47 25 ONO 1006,0 10
10.02.2019 23:00:00 4,0 3,0 18 10 40 21 O 1004,5 9
10.02.2019 22:00:00 4,0 2,7 18 10 - - O 1002,7 18
10.02.2019 21:00:00 4,0 2,8 25 14 47 25 O 1000,8 9
10.02.2019 20:00:00 4,5 2,9 25 14 47 25 O 998,3 12
10.02.2019 19:00:00 5,1 3,8 25 14 - - O 996,0 10
10.02.2019 18:00:00 5,7 3,3 32 18 50 27 OSO 994,2 20
10.02.2019 17:00:00 6,1 5,2 25 14 40 21 OSO 993,0 20
10.02.2019 16:00:00 6,9 5,4 22 12 - - O 992,2 13
10.02.2019 15:00:00 7,7 5,9 22 12 43 23 OSO 991,2 20
10.02.2019 14:00:00 7,8 6,4 25 14 36 19 SO 991,3 3,8
10.02.2019 13:00:00 7,8 6,5 25 14 - - OSO 991,5 20
10.02.2019 12:00:00 8,0 6,6 25 14 47 25 OSO 991,4 20
10.02.2019 11:00:00 9,0 8,2 25 14 47 25 SO 990,6 20
10.02.2019 10:00:00 8,8 8,2 22 12 - - SO 990,8 9
10.02.2019 09:00:00 9,3 7,8 25 14 47 25 SSO 991,4 20
10.02.2019 08:00:00 9,0 7,7 22 12 40 21 SSO 991,8 5
10.02.2019 07:00:00 8,7 7,4 22 12 - - S 992,9 12

tt = Temperatura
td = dewpoint
ff = velocità del vento
fx = gusts
dd = direzione del vento
ppp = reduced air pressure
vv = visibility

Stazioni seguenti

WeatherPro
AMSI
MeteoEarth